Theta_e
320 323 326 328 328 328 328 328 329 330 331 331 330 330 330 330 331 332 333 334 333 334 336 337 337 337 331 325 322 322 321 321 321 322 323 322 322 321 321 322 322 322 322 325 331 334 335 334 333 327 324 324 324 324 324 324 324 324 324 323 321 319 318 318 320 320 320 323 325 328 329 331 331 331 331 331 331 331 331 331 330 330 331 330 330
319 320 323 326 328 328 328 328 328 329 330 331 331 330 331 331 332 332 333 334 334 335 336 337 335 332 326 323 322 322 321 321 321 321 321 321 321 320 320 320 320 320 323 330 332 334 335 335 335 330 326 325 324 324 324 323 323 324 324 324 323 322 319 319 322 324 323 323 325 328 329 329 329 328 327 326 326 328 330 330 330 330 331 332 332
319 319 321 324 327 328 328 328 327 327 328 330 331 330 331 331 332 332 333 334 335 336 336 335 331 327 323 323 322 322 322 322 322 321 321 321 321 321 321 321 320 321 327 333 332 333 336 336 335 330 327 326 325 324 324 323 323 323 323 324 324 323 322 320 321 324 325 325 325 328 328 328 329 328 326 323 322 323 325 325 326 325 324 326 327
320 319 319 323 326 328 329 328 327 327 327 328 329 329 330 331 331 329 330 334 336 337 335 331 327 325 324 323 323 323 323 323 323 322 322 321 321 321 321 321 320 323 330 333 332 334 336 336 332 328 327 326 326 325 324 323 323 321 321 322 323 324 323 322 321 321 323 325 326 328 327 327 328 329 327 327 326 326 325 322 321 319 318 318 319
320 320 318 321 324 327 328 329 327 327 327 327 328 328 330 331 329 327 328 333 335 335 333 328 325 324 324 324 323 323 323 323 323 323 323 322 322 321 321 320 320 326 332 333 333 333 334 333 329 327 325 325 326 326 325 323 323 321 320 319 320 323 323 323 323 322 322 324 327 328 329 329 328 329 328 326 325 326 326 325 324 321 319 318 317
320 320 319 320 322 326 327 328 328 327 328 328 328 328 330 330 327 326 328 332 333 333 330 327 325 325 324 324 323 323 323 323 323 323 323 323 322 322 321 320 321 327 332 334 334 332 332 329 327 326 323 322 323 324 325 325 324 322 320 317 315 318 320 322 323 322 322 323 325 327 329 330 330 330 330 328 326 326 326 327 327 325 323 323 321
320 320 320 319 320 323 325 327 328 327 327 328 328 328 329 328 326 325 327 328 329 329 328 326 325 325 325 324 323 323 324 324 324 324 324 323 324 323 322 321 322 328 331 333 334 332 330 328 326 324 321 319 318 319 321 322 322 320 317 315 313 312 314 319 322 321 322 322 324 327 327 328 331 333 334 334 333 331 329 327 327 327 327 326 324
319 320 320 319 320 321 323 326 326 327 328 328 328 328 327 326 325 324 325 325 326 327 327 326 326 326 325 324 323 324 324 324 324 324 322 323 325 324 322 322 324 328 331 334 335 332 328 327 326 324 322 319 315 314 314 314 315 314 312 311 311 310 311 315 319 320 321 321 323 326 325 325 330 333 334 334 334 333 333 329 327 326 326 326 325
319 320 320 320 320 320 322 324 325 326 327 327 328 328 327 325 324 323 324 324 324 325 326 326 326 326 325 324 324 324 325 325 326 325 322 324 325 325 323 324 327 329 331 333 334 332 328 326 325 324 322 317 313 312 311 311 311 310 310 310 310 310 309 311 314 319 321 321 322 324 324 323 326 331 332 333 334 334 333 331 327 325 325 326 325
317 320 320 321 320 320 321 322 323 323 325 325 326 327 327 325 325 324 324 323 323 324 325 326 326 326 325 324 324 325 327 328 328 326 323 323 324 324 323 325 329 331 332 332 332 330 326 324 322 318 315 313 312 311 311 310 310 309 308 307 307 307 308 308 310 315 319 321 321 322 322 321 322 328 332 333 334 334 333 330 328 324 324 325 323
316 318 320 321 320 321 321 321 321 322 322 323 324 325 326 325 325 325 324 324 324 324 324 325 326 325 325 324 324 326 329 330 330 328 325 323 324 323 324 327 327 328 329 328 326 323 319 317 315 313 311 310 310 310 310 309 308 306 305 305 305 305 305 306 307 310 315 319 321 322 321 321 321 326 330 332 333 332 332 330 327 324 322 322 322
316 317 319 320 320 321 321 321 321 321 322 322 322 323 324 324 324 324 324 325 324 324 325 326 326 325 325 324 324 326 329 331 331 330 326 321 322 322 323 327 324 322 323 322 320 318 317 313 311 311 309 308 308 308 308 306 305 304 304 304 304 304 304 304 305 306 309 313 318 320 320 321 321 323 326 330 331 330 328 326 324 323 324 325 327
316 316 317 319 320 321 321 321 321 320 321 321 321 321 322 322 322 323 323 324 323 323 324 326 326 326 325 324 325 326 328 331 332 331 327 322 321 321 321 323 321 320 321 321 320 319 318 314 311 311 308 306 305 306 306 304 304 304 304 304 305 305 305 305 304 305 306 308 312 316 318 319 320 320 321 323 326 325 321 318 316 321 327 330 332
316 316 316 317 318 319 320 321 321 320 320 320 321 321 321 321 321 322 322 322 321 320 321 323 325 326 325 324 326 327 327 329 333 332 329 324 323 323 320 318 318 318 318 318 318 317 315 312 311 310 306 305 304 305 304 304 304 304 305 305 306 306 306 306 305 305 305 305 307 310 313 315 318 318 318 318 318 316 314 313 312 318 327 331 332
315 316 316 316 317 318 319 320 320 321 320 319 320 320 321 321 321 321 322 321 320 318 317 319 322 324 324 325 325 326 325 327 332 334 332 327 325 324 321 318 317 316 315 314 314 313 312 310 311 309 306 304 304 304 304 304 304 305 307 307 307 307 308 307 307 307 306 305 304 306 308 311 314 318 319 317 314 312 310 310 309 314 322 328 330
315 315 316 316 316 316 317 318 319 320 320 320 319 319 319 320 320 321 321 321 320 318 316 317 319 321 322 323 324 324 324 327 331 333 333 331 327 326 323 320 319 318 315 311 312 313 311 310 310 307 305 304 304 304 304 304 305 307 308 307 308 307 308 308 308 308 307 307 305 305 305 306 309 314 317 316 312 310 308 306 307 308 313 319 324
315 315 315 315 316 316 316 317 318 319 319 320 320 319 319 319 319 319 320 320 319 318 316 315 316 318 318 320 322 323 323 327 331 332 333 333 330 327 325 323 322 322 317 311 312 313 311 310 307 305 304 304 303 303 304 305 307 307 307 307 307 307 307 307 307 307 307 307 307 306 305 305 306 308 311 311 309 307 306 304 305 305 306 310 313
315 315 315 315 315 315 316 316 316 317 318 318 319 319 319 319 318 318 318 318 318 317 316 315 314 315 316 317 319 321 323 325 329 331 331 333 331 329 326 324 323 321 316 310 310 311 310 308 305 304 304 303 303 303 305 306 307 307 307 307 307 307 307 307 307 307 307 307 307 307 307 306 305 306 306 307 306 305 305 304 304 304 304 305 306
315 315 315 315 315 315 315 316 316 316 316 317 318 318 319 319 318 318 318 317 317 316 315 315 314 314 314 315 315 318 322 323 327 330 330 331 330 327 324 323 321 317 313 309 308 309 307 306 304 304 304 303 303 304 306 307 307 307 306 307 307 307 306 306 307 306 307 307 307 307 307 307 306 306 305 305 306 305 305 305 305 305 304 304 304
316 315 315 315 315 315 315 315 315 316 316 316 316 317 318 319 319 319 318 317 317 316 315 314 314 314 313 314 314 315 320 322 325 329 330 329 326 322 320 320 318 315 311 308 307 307 306 305 304 304 304 304 303 305 306 307 306 306 306 306 306 306 306 306 306 306 307 306 307 307 306 307 306 306 306 306 305 305 305 305 305 305 305 305 304
317 316 315 315 315 315 315 315 315 315 316 316 316 316 317 318 319 319 319 318 318 317 315 315 314 314 314 314 314 314 318 321 325 327 328 327 324 319 316 316 316 313 310 308 306 306 306 305 304 304 304 304 304 305 307 307 306 306 306 306 306 306 306 307 307 307 307 307 307 307 307 307 307 307 307 307 306 306 306 306 306 306 305 305 305
317 316 315 315 315 315 315 315 315 315 315 316 316 316 317 318 318 319 319 319 319 318 317 316 315 315 314 314 314 314 316 320 324 326 327 326 323 319 315 315 314 312 310 308 306 305 306 305 305 305 304 304 304 306 307 306 306 306 306 306 307 307 307 307 307 307 307 306 306 306 307 306 307 307 307 307 307 306 306 306 306 306 305 305 305
317 316 316 315 315 315 316 315 315 315 314 315 315 316 316 317 317 318 319 319 319 319 319 317 316 316 315 314 314 314 316 320 323 324 326 325 323 320 316 314 313 312 311 308 305 305 306 305 305 305 304 304 304 306 307 307 306 306 306 307 308 308 308 308 308 307 307 307 307 306 306 306 307 306 307 307 307 307 307 306 306 306 305 305 305
316 316 316 315 315 314 315 315 315 316 315 315 315 315 316 316 317 317 318 319 319 320 320 318 317 317 316 315 314 314 316 320 324 326 327 326 325 321 316 313 312 312 311 308 305 305 305 305 305 304 304 304 304 306 307 307 306 306 307 308 308 308 308 308 308 308 308 307 307 307 306 306 306 306 306 306 306 306 307 306 306 306 306 305 305
316 316 316 315 315 314 315 315 316 316 316 315 315 315 315 315 316 316 317 318 318 319 319 318 318 317 317 315 314 313 315 320 324 327 329 327 325 320 315 313 311 312 311 308 306 304 305 305 304 304 304 304 304 306 306 307 306 306 307 308 308 309 308 308 309 308 308 308 307 307 307 307 306 306 306 306 306 306 306 307 306 306 306 306 306
316 316 316 315 315 315 315 315 316 316 316 316 316 316 315 316 316 316 317 318 318 318 318 318 318 318 317 316 314 313 314 317 322 326 328 326 322 318 313 312 311 311 310 308 306 305 305 305 304 303 303 304 304 305 306 306 306 306 307 308 309 309 309 309 309 309 308 308 308 308 307 307 307 307 306 306 306 306 306 306 306 306 307 307 307
316 316 316 316 316 315 315 315 316 316 316 316 316 316 316 316 316 317 318 318 318 318 318 318 318 318 318 318 316 314 314 315 319 322 323 322 320 316 313 312 311 311 311 309 307 305 305 305 304 303 303 303 303 304 306 306 306 306 307 308 309 308 308 308 308 308 308 308 308 308 308 308 307 307 307 307 306 306 306 306 306 307 308 308 308
316 316 316 316 316 316 316 316 317 317 317 317 317 316 316 317 317 317 317 318 319 319 319 318 318 318 317 318 318 315 315 317 319 320 320 321 319 316 314 313 311 312 312 310 309 307 305 305 304 303 303 303 303 304 305 306 306 306 307 308 308 308 308 308 308 308 308 308 308 308 308 308 308 307 307 307 306 306 306 306 306 307 308 308 309
315 316 315 315 315 316 316 317 317 318 318 318 317 316 316 316 317 317 317 318 319 320 321 321 320 319 318 318 318 317 315 317 320 321 322 321 319 318 316 314 312 312 312 311 310 308 306 305 304 303 303 303 303 303 304 306 306 305 306 307 308 308 308 307 307 307 308 308 308 308 308 308 308 307 307 307 306 306 306 306 306 306 307 307 309
315 316 315 315 315 315 315 315 316 317 318 319 318 317 317 317 317 318 318 318 319 320 322 323 322 322 321 320 319 319 317 318 321 322 322 322 320 319 318 316 314 312 312 312 311 309 307 305 304 303 303 303 303 303 303 304 305 305 305 306 307 307 307 307 307 307 307 307 307 307 307 307 307 307 307 307 306 306 305 305 305 306 306 308 310
315 315 315 315 316 315 315 315 314 315 317 318 319 318 318 319 319 319 320 320 320 322 322 323 324 324 323 323 322 321 320 320 322 323 323 323 322 321 320 318 316 314 313 313 313 311 308 305 304 303 303 303 303 303 303 303 304 305 305 305 306 306 307 307 307 306 307 307 307 307 307 307 307 307 307 307 306 305 305 305 305 306 307 309 311
314 314 315 315 315 315 315 314 313 314 315 317 319 320 319 320 321 321 322 322 323 324 324 324 325 325 325 325 324 323 322 321 322 322 322 323 323 322 321 319 318 317 316 315 315 314 311 307 304 303 302 302 302 302 302 303 303 304 304 304 305 306 306 306 306 306 306 306 306 306 306 307 306 307 306 306 306 305 305 304 305 305 305 308 309
313 313 314 314 314 314 314 314 313 313 314 315 318 320 320 321 322 323 323 324 325 325 326 326 326 326 327 326 326 325 324 323 323 322 322 323 323 322 321 320 320 320 319 318 318 317 314 310 306 303 303 302 302 302 302 302 302 303 304 304 304 304 305 306 306 305 305 305 305 305 306 306 306 306 306 306 306 306 305 305 305 305 304 305 305
312 312 313 313 313 313 313 314 314 313 313 314 318 320 322 322 323 324 324 325 325 326 326 326 327 327 327 327 327 326 325 325 325 325 324 324 323 322 321 321 321 321 320 320 320 319 316 313 309 304 302 302 302 302 302 302 302 303 303 303 304 304 304 304 305 305 305 305 304 305 305 305 305 305 306 306 306 306 305 305 304 304 303 303 304
312 311 312 312 312 312 313 313 313 313 313 314 316 319 322 323 324 324 324 325 325 325 326 326 327 327 327 327 327 326 326 326 325 325 325 325 324 323 323 322 322 322 322 321 321 320 318 316 312 305 302 302 302 302 302 301 301 302 302 303 303 303 303 303 304 305 304 304 304 304 304 304 305 305 305 305 306 306 305 306 305 303 303 302 303
310 310 311 311 312 312 313 313 314 314 314 314 315 317 320 322 323 324 324 324 325 325 325 325 326 326 326 327 326 326 326 326 326 325 325 325 324 324 324 324 324 323 323 322 321 320 319 318 314 309 305 303 302 302 301 301 301 301 301 302 302 303 303 303 303 303 304 304 304 304 304 304 304 304 304 305 305 305 305 305 304 304 303 302 302
309 309 309 310 311 312 313 314 314 314 314 314 315 316 319 321 322 323 323 323 324 324 324 325 325 325 325 325 326 326 326 326 326 325 325 325 325 325 325 325 324 324 324 323 322 320 319 318 317 314 311 308 305 303 302 301 301 301 301 301 301 302 302 303 303 303 303 304 304 303 303 303 303 303 304 304 304 305 305 305 304 304 303 302 302
308 308 309 309 310 311 312 313 313 313 313 313 314 315 318 320 322 322 322 322 322 323 323 324 324 325 325 326 326 326 326 326 326 325 325 324 325 325 325 325 325 324 323 323 322 321 320 319 318 317 316 313 309 306 304 303 301 300 300 300 300 301 302 302 302 302 302 303 303 303 303 303 303 303 303 303 304 304 304 304 304 303 303 302 301
307 308 308 309 309 310 310 311 311 311 311 311 311 313 316 318 320 321 321 321 321 322 322 323 324 324 325 325 325 326 325 326 325 325 325 324 324 324 324 324 324 323 323 323 322 321 321 320 320 319 318 316 314 310 307 305 303 300 299 299 299 300 301 301 302 302 302 302 303 302 303 303 302 302 303 303 303 303 303 304 304 303 303 302 301
307 307 308 308 309 309 309 309 309 309 309 309 309 310 312 314 317 319 320 321 320 321 321 321 322 323 323 323 324 325 325 325 325 325 325 324 324 324 323 323 322 322 322 322 321 320 320 320 320 320 319 317 315 313 309 306 304 301 299 298 298 299 299 300 301 301 301 302 302 302 302 302 302 302 302 302 302 303 303 303 303 303 303 302 301
307 307 307 308 307 308 308 308 308 308 308 309 309 309 309 310 312 315 317 318 319 319 319 320 320 320 321 321 321 322 322 323 323 323 323 323 323 323 323 322 322 321 321 320 319 319 319 319 319 319 318 317 315 314 312 308 305 302 300 298 298 298 298 299 300 301 301 301 301 301 302 302 302 302 302 302 302 302 302 302 303 303 303 303 302
306 307 307 307 307 307 307 307 307 307 307 307 307 308 308 309 310 311 312 313 314 315 315 316 317 317 318 319 319 319 319 320 320 320 320 320 320 321 321 320 320 320 319 319 318 318 318 318 318 318 318 317 315 314 313 309 306 303 301 299 298 298 298 298 299 300 300 300 301 301 301 301 301 302 302 302 301 302 302 302 302 302 303 303 302
306 306 307 306 306 306 306 306 306 306 306 306 306 306 307 307 307 308 308 308 309 309 310 310 310 311 312 313 314 315 316 316 317 317 318 318 318 318 318 318 317 317 318 318 317 317 317 317 317 317 317 316 315 314 313 311 308 305 301 299 298 297 297 298 299 299 299 300 300 300 301 301 301 301 301 301 301 301 301 301 302 302 303 303 302
306 306 306 306 306 307 306 306 306 306 306 306 306 306 306 306 306 306 306 307 307 306 307 306 307 306 307 307 307 308 308 310 311 313 314 315 316 316 316 316 315 315 315 315 315 315 315 315 315 315 315 314 314 313 312 311 309 306 302 299 297 297 297 298 298 299 299 299 299 300 300 300 301 301 301 301 301 301 301 301 301 301 302 303 302
306 306 306 306 306 307 307 307 307 307 307 306 306 306 306 306 306 306 306 306 305 305 305 305 305 305 305 305 305 305 304 305 305 306 307 309 310 312 313 313 313 313 314 313 313 313 312 312 313 312 312 312 312 312 311 310 309 308 304 300 298 297 297 298 298 298 298 299 299 299 299 300 300 300 301 301 301 301 301 301 301 301 301 302 302
306 305 306 306 306 306 306 306 306 306 306 306 306 306 306 306 306 305 305 305 305 305 304 304 303 304 304 304 304 304 304 304 304 304 304 304 305 306 307 309 310 311 312 312 312 312 311 311 311 310 310 310 309 309 309 308 308 308 305 302 300 298 297 297 297 298 298 298 299 299 299 299 299 300 300 300 301 301 300 300 300 301 301 301 302
304 304 305 305 305 305 305 305 305 305 305 305 305 305 305 305 305 305 305 305 305 305 304 304 304 303 303 304 304 304 304 304 304 304 304 304 304 304 304 305 306 307 309 309 310 310 310 310 310 309 308 308 307 307 307 307 306 306 305 303 301 299 298 297 297 297 297 298 298 298 299 299 299 299 300 300 300 300 300 300 300 300 301 301 301
303 304 304 304 304 304 304 304 304 304 304 304 304 304 304 304 304 304 304 304 304 303 303 303 303 303 303 304 304 304 303 303 303 303 303 303 303 303 303 303 303 304 305 306 307 308 308 309 309 308 308 307 306 305 305 305 305 304 304 304 302 300 299 297 297 297 297 297 297 298 298 298 299 299 300 300 300 300 300 300 300 300 300 301 301
302 303 303 303 303 303 303 303 303 303 302 303 303 303 302 302 302 302 303 302 302 302 302 302 302 302 302 303 303 303 303 303 303 303 302 302 302 302 302 302 302 302 302 303 303 304 305 306 306 307 307 306 305 304 304 304 304 303 303 303 303 302 300 298 298 297 297 297 297 297 297 298 298 298 299 300 300 300 301 300 300 301 300 301 301
302 303 303 303 302 302 302 302 302 301 301 301 301 302 301 301 301 301 301 301 301 301 301 301 301 301 301 301 301 302 302 302 302 302 302 302 301 301 301 301 301 301 301 302 301 302 302 303 304 305 305 305 305 304 303 303 303 303 302 302 301 301 300 299 298 297 297 297 297 297 297 297 297 298 298 298 299 299 300 300 300 300 301 301 301
302 302 302 302 302 302 301 301 301 300 300 300 301 301 301 301 301 300 300 300 300 300 300 300 300 300 300 300 300 300 300 301 301 301 301 301 301 301 301 300 300 300 301 301 300 300 301 301 302 302 303 303 304 304 303 303 302 302 301 301 300 300 299 299 298 298 297 297 297 297 297 297 297 297 297 298 298 298 299 299 300 300 300 301 301
Wind_Speed
9 12 15 15 14 15 15 16 16 17 17 17 18 18 17 16 15 14 14 12 10 10 10 9 9 9 10 9 9 8 8 7 6 6 5 5 5 4 4 4 4 5 6 7 7 5 5 5 6 7 8 8 8 8 9 9 8 8 8 8 8 8 8 8 9 9 10 10 9 8 7 6 6 6 7 7 7 6 7 6 6 5 4 4 4
7 10 14 15 14 14 14 15 16 17 17 17 17 17 17 16 16 15 14 12 11 11 12 11 11 11 11 10 9 8 7 7 6 5 5 4 3 2 1 1 2 4 6 7 5 4 4 3 4 6 6 6 7 7 8 8 8 8 7 7 7 7 8 8 8 9 9 10 10 9 8 7 6 5 5 5 5 6 6 6 6 5 4 4 5
5 9 12 15 15 14 14 14 15 16 17 18 17 16 15 15 15 14 13 12 13 13 13 12 12 12 12 11 9 8 7 6 6 6 5 4 4 3 2 1 1 3 5 5 4 5 5 4 4 3 3 4 5 6 7 7 8 7 7 7 6 6 6 7 7 8 8 9 9 9 8 7 6 5 4 5 4 4 5 5 5 4 4 4 5
3 7 10 14 16 15 14 13 14 15 16 17 17 16 15 14 13 12 11 12 14 14 14 13 14 13 12 11 10 9 7 7 7 6 6 5 4 4 4 3 2 4 5 5 5 5 6 5 3 1 2 3 4 5 5 6 7 6 6 6 5 5 5 5 6 6 7 8 8 8 8 7 6 4 3 3 3 3 4 3 3 3 3 4 5
3 5 9 12 15 16 15 14 13 13 14 16 17 16 15 14 12 11 11 13 14 14 14 14 14 13 11 10 9 8 7 7 6 6 6 5 4 4 4 4 4 5 7 6 6 6 6 5 2 1 2 2 3 4 4 4 5 4 4 4 3 4 4 5 5 5 6 7 7 7 7 6 6 4 2 2 2 2 2 3 2 2 3 3 4
3 3 7 10 13 16 16 15 14 13 13 14 15 15 15 14 12 11 11 12 13 13 14 14 13 12 10 9 8 7 6 5 5 5 5 5 4 5 5 5 5 7 7 6 7 7 7 5 3 2 2 2 2 3 4 4 4 3 2 2 2 3 4 5 5 6 6 7 7 7 6 6 6 5 3 1 1 1 2 3 2 2 2 2 2
4 3 5 8 11 14 16 16 15 14 14 14 14 14 14 14 13 12 12 12 12 13 13 13 12 11 10 9 8 7 6 5 5 6 6 6 5 5 6 6 7 8 8 7 7 7 8 6 4 3 2 2 3 3 4 5 5 4 4 4 4 5 6 6 6 7 7 7 8 7 6 6 6 6 4 2 2 1 2 2 2 3 3 3 3
5 4 4 6 10 13 15 16 16 15 15 15 15 14 14 14 13 13 13 12 12 12 13 13 13 11 10 9 8 7 7 6 6 6 6 5 6 6 6 7 8 9 9 8 7 7 8 6 5 5 4 5 5 5 5 6 6 6 6 6 6 6 7 8 9 9 9 7 8 8 6 6 7 7 4 3 2 2 3 2 2 3 4 4 4
4 5 4 5 7 11 14 15 16 16 16 16 16 15 15 14 14 14 13 13 13 13 13 14 13 12 11 10 9 7 7 6 6 6 4 5 7 6 7 8 8 8 9 9 8 8 8 7 7 7 6 7 7 7 6 6 6 6 6 6 7 7 8 9 11 11 10 9 9 9 7 6 7 8 5 4 4 4 4 3 3 3 4 5 5
5 6 5 5 5 9 13 15 16 16 16 16 17 16 16 15 14 14 14 14 14 14 14 14 14 13 12 11 9 7 6 6 6 6 4 5 7 8 7 8 9 9 9 9 9 9 9 9 9 8 7 7 8 7 6 6 5 5 5 6 6 7 8 10 11 12 12 12 11 10 9 7 7 9 7 5 6 7 7 6 5 4 4 5 6
5 6 7 6 5 7 11 15 16 16 17 17 17 17 17 16 15 15 15 15 15 15 15 15 15 14 13 12 10 8 7 7 8 6 4 5 7 8 8 9 9 10 9 10 10 11 11 10 8 6 6 7 7 6 5 5 5 4 4 4 5 6 7 9 11 12 13 13 13 12 11 8 7 9 8 6 7 8 8 7 7 5 5 5 6
4 6 7 8 7 7 8 12 15 16 17 17 17 17 18 17 16 16 16 16 16 16 16 16 16 15 14 13 11 9 9 9 9 8 6 7 8 8 9 10 10 10 10 10 11 10 10 9 5 4 6 6 5 4 4 4 4 4 3 4 4 5 6 7 8 10 12 14 15 13 12 10 8 10 10 8 7 8 8 7 7 5 4 4 4
3 5 7 8 8 8 8 10 13 16 17 17 17 17 18 17 17 17 16 17 17 17 17 17 17 15 14 14 12 10 11 11 11 11 9 9 8 8 8 9 8 8 9 10 10 11 11 9 6 5 5 5 5 4 4 4 4 3 3 3 3 3 4 5 6 7 10 12 14 14 13 12 11 11 12 11 10 9 8 6 5 5 2 3 3
3 4 6 8 9 9 9 9 11 13 15 16 17 17 17 17 17 17 17 17 17 17 17 17 17 16 15 14 13 12 12 12 12 13 12 11 9 9 8 7 7 7 8 10 11 12 13 11 9 6 5 6 5 4 4 4 4 3 2 2 2 2 3 3 3 4 7 10 12 13 13 13 12 12 13 13 13 12 10 8 5 6 6 5 5
4 4 5 7 9 10 10 10 10 11 13 15 16 17 18 18 17 17 17 17 17 16 17 17 17 16 16 15 13 12 12 13 14 14 14 12 11 10 9 7 7 8 9 10 11 12 12 10 9 6 5 6 5 4 5 5 4 3 2 2 2 3 2 2 2 3 4 7 9 10 12 12 12 13 12 11 12 11 9 8 7 7 9 10 8
5 5 6 7 8 10 11 12 11 12 12 13 15 16 17 18 18 18 18 18 17 17 17 16 16 17 16 15 13 12 12 13 15 15 15 13 12 11 9 8 8 9 10 10 10 10 11 9 7 6 7 7 6 6 6 5 5 4 3 2 3 3 3 2 2 2 4 5 6 8 10 11 11 12 11 11 12 9 7 7 7 8 11 13 12
6 6 6 7 8 10 11 12 13 13 13 13 14 15 16 17 17 18 18 18 18 17 17 17 17 17 16 14 13 13 13 15 16 17 17 15 14 13 11 10 9 10 11 11 9 8 10 8 6 6 8 8 8 8 7 6 5 4 4 4 4 4 3 3 3 3 4 5 6 7 9 10 11 12 12 13 13 11 8 8 7 7 10 13 14
9 8 8 8 9 9 11 12 13 14 15 15 15 16 16 17 17 17 18 18 19 18 18 17 17 17 16 15 15 14 15 17 18 18 18 17 16 14 13 11 10 11 12 12 8 8 9 6 6 8 9 9 9 9 8 7 6 5 5 5 5 5 5 4 4 4 5 6 6 7 8 10 11 12 13 14 14 12 9 9 9 8 9 11 12
11 11 10 10 10 10 11 12 14 15 16 16 17 17 16 17 17 17 18 19 19 19 18 18 18 17 17 16 17 16 16 19 20 20 20 19 18 16 13 11 11 11 13 12 8 8 8 6 7 9 10 10 10 9 9 8 7 6 6 6 6 6 6 5 5 6 6 7 7 7 8 9 10 11 12 13 13 12 11 10 10 10 10 11 11
13 13 13 13 12 13 13 13 14 15 16 17 17 17 17 18 18 18 19 19 20 20 19 18 18 18 17 17 17 17 18 19 20 21 21 21 18 15 13 12 11 12 13 11 8 8 8 7 8 10 11 11 11 10 9 8 7 7 7 6 6 6 6 6 6 7 7 7 8 8 8 9 10 10 11 11 12 12 12 11 11 11 11 11 12
14 14 14 14 14 14 15 15 15 15 16 17 17 18 18 19 19 20 20 20 21 21 20 19 19 19 18 18 18 18 19 20 21 22 22 22 19 15 13 12 11 12 13 12 9 9 9 8 10 11 12 12 12 11 10 9 8 7 7 7 7 7 7 7 7 7 8 8 8 8 9 9 10 10 11 11 11 12 12 11 11 11 11 11 12
15 14 14 13 13 13 14 15 16 16 17 18 18 18 19 20 20 21 21 21 22 22 22 21 21 20 20 20 19 20 20 20 21 22 23 22 20 17 14 12 11 11 13 13 10 10 9 9 11 12 13 13 12 12 11 10 9 8 8 7 7 7 7 8 8 8 8 8 8 8 9 9 9 10 10 11 11 11 11 12 11 11 11 11 12
16 14 14 13 12 11 11 13 15 16 18 18 19 19 20 20 21 22 22 22 23 23 24 23 22 21 21 21 20 21 21 21 22 23 23 23 21 19 16 14 12 11 13 14 12 11 10 11 12 12 14 14 13 13 12 10 9 8 8 8 8 8 8 8 8 9 9 9 9 9 9 9 10 10 10 10 11 11 11 11 11 11 12 11 12
16 15 14 13 12 11 10 9 10 13 16 18 19 20 20 21 22 22 22 23 23 24 24 24 23 23 22 22 21 21 22 22 23 23 24 24 23 21 19 15 12 11 13 14 13 12 11 12 12 13 15 14 14 13 12 11 10 9 9 9 9 9 8 9 9 9 9 10 10 10 10 10 10 10 10 11 11 11 11 11 12 12 12 12 12
16 15 14 13 13 12 11 9 9 10 12 15 18 19 20 21 22 22 22 23 24 24 25 25 25 24 23 23 22 22 23 23 23 24 25 25 25 23 21 17 14 13 13 15 15 13 13 13 12 14 16 15 14 14 13 13 12 11 10 10 10 9 9 9 9 9 9 10 10 10 11 11 11 12 11 11 12 12 12 12 12 12 12 12 12
16 16 14 13 12 13 13 12 11 10 10 11 14 16 19 20 21 21 22 22 23 24 25 26 26 26 25 24 24 24 24 24 24 25 26 26 25 24 21 19 16 15 14 15 16 15 14 13 12 14 16 16 16 15 15 14 13 12 12 11 11 11 10 10 10 10 9 10 10 10 11 12 12 13 13 13 13 13 13 12 13 13 12 11 11
17 17 15 13 12 11 12 13 12 12 11 11 12 13 16 18 20 20 21 21 22 23 24 25 26 26 26 26 25 25 25 25 26 26 26 26 25 24 22 21 19 17 16 16 17 17 16 14 13 15 17 17 17 17 17 16 14 14 14 13 13 12 11 10 10 10 10 10 10 11 11 12 12 13 14 14 14 14 13 13 12 13 13 11 9
16 16 15 13 11 10 11 13 13 13 12 12 12 12 13 14 17 19 20 21 21 22 22 23 24 25 25 26 26 27 26 26 26 27 27 27 26 25 24 23 22 20 18 16 18 18 17 16 14 16 19 19 19 18 18 17 16 16 15 14 14 13 12 11 10 10 11 10 11 11 11 12 12 13 13 14 15 15 15 14 13 12 13 11 9
14 15 14 13 12 11 10 9 11 12 13 13 13 12 12 12 14 16 17 19 20 20 20 21 22 22 22 23 25 27 28 27 27 27 28 28 27 27 26 25 24 23 21 18 18 19 19 18 16 17 20 21 21 20 19 19 18 18 17 15 15 15 14 13 11 11 11 11 11 11 12 12 12 13 13 14 15 15 15 15 14 13 13 11 9
12 14 14 13 13 13 11 8 7 9 12 12 13 12 12 13 13 13 14 17 18 19 20 20 20 20 20 20 21 24 27 27 27 28 28 28 28 28 28 27 26 25 24 21 19 20 20 19 18 18 20 22 21 21 20 20 20 19 18 17 16 16 16 14 13 12 12 12 12 12 12 12 12 13 13 14 14 15 15 15 15 13 12 11 9
10 12 12 13 12 13 13 10 6 6 9 11 11 12 13 13 13 13 14 15 16 17 18 19 19 19 19 18 18 20 23 26 28 28 29 29 29 29 29 29 28 27 26 24 21 20 21 20 19 18 21 22 23 23 22 21 21 21 20 19 18 18 17 16 14 13 13 13 13 12 12 12 13 13 13 13 14 15 15 15 15 13 12 11 10
8 10 10 10 11 11 12 11 9 6 7 8 9 10 11 12 13 14 14 15 15 17 18 18 19 18 18 18 18 18 20 23 26 28 29 30 30 30 30 30 30 28 27 26 23 21 22 21 20 20 21 23 24 24 23 23 22 22 22 21 20 19 19 18 16 15 14 14 14 13 13 13 13 13 13 13 14 15 15 15 15 15 14 12 12
6 7 8 8 9 9 10 11 10 9 7 5 6 8 9 10 12 13 14 15 16 17 18 18 18 18 19 19 19 18 19 20 21 23 25 28 29 28 29 29 29 28 27 26 25 23 22 22 22 21 22 25 26 26 25 25 24 24 23 23 22 21 20 19 18 17 16 15 15 14 14 14 13 13 13 13 14 15 15 16 16 16 14 13 13
6 5 7 8 8 9 9 10 10 10 8 6 5 5 7 9 10 12 13 14 15 16 17 17 17 17 18 18 19 18 18 19 19 20 21 23 24 25 25 26 26 26 26 26 26 24 24 24 24 23 23 25 26 27 27 27 26 26 25 24 24 23 22 21 20 20 18 17 17 16 16 15 14 14 14 14 15 15 16 17 16 15 15 14 13
7 7 7 8 8 8 9 10 9 9 8 8 7 6 7 8 9 10 11 12 13 14 15 16 16 17 17 18 18 18 17 18 18 19 19 20 21 22 22 22 23 24 25 26 27 26 26 25 24 24 24 25 26 28 28 28 28 28 27 26 25 25 24 23 23 22 20 19 19 18 18 17 16 15 15 15 15 15 16 16 16 16 16 16 15
8 7 6 7 7 7 7 8 8 8 7 8 8 7 7 8 9 9 10 11 12 12 13 14 15 16 17 17 17 18 18 18 19 19 19 20 20 20 20 20 21 23 24 26 27 27 27 25 24 23 23 24 26 28 29 30 29 29 29 28 27 26 26 25 25 24 23 22 21 21 20 19 18 17 16 16 15 16 16 16 16 16 17 17 18
4 4 4 5 6 5 5 6 6 6 6 7 7 7 7 7 8 8 9 9 10 11 11 12 13 14 15 16 17 17 18 18 19 19 20 20 20 20 20 20 21 22 24 25 26 28 28 25 23 23 23 24 25 27 29 30 31 31 30 30 29 29 28 27 27 26 25 25 24 23 22 21 20 19 18 17 17 17 17 17 16 16 18 18 19
2 1 1 2 3 3 4 4 4 5 6 7 7 7 7 7 7 7 8 8 9 9 10 10 11 13 14 15 16 17 17 18 18 19 20 20 21 21 21 22 22 23 24 26 26 28 28 26 24 24 25 25 25 26 27 29 31 32 32 31 31 31 30 29 29 29 28 28 27 26 25 24 22 21 20 19 18 18 17 17 17 17 18 18 20
5 4 3 2 1 1 1 3 4 4 5 6 7 7 7 7 7 7 8 8 8 8 9 9 10 11 12 13 14 15 15 16 17 18 19 20 20 21 21 22 23 24 25 26 27 28 28 28 27 27 27 27 27 27 27 27 29 31 32 32 32 32 32 31 31 32 31 30 29 29 28 26 24 22 22 21 20 19 19 18 18 18 18 19 20
7 6 5 4 5 4 3 2 2 2 1 2 4 5 6 7 7 8 8 8 8 9 9 9 9 10 10 11 11 11 11 12 13 15 17 19 20 21 22 22 23 24 25 26 26 26 26 26 27 28 29 29 28 28 28 28 29 30 32 32 33 33 34 34 34 34 33 32 32 32 30 28 27 26 25 23 22 21 20 20 19 19 19 20 20
11 10 9 9 9 9 8 9 9 9 7 6 4 2 1 3 5 6 7 8 8 9 10 11 11 11 11 11 11 10 10 10 11 12 13 14 16 17 19 21 22 23 25 25 25 25 24 25 26 28 29 29 29 29 28 29 29 31 32 33 34 35 36 36 36 36 35 35 35 34 32 31 30 28 27 26 24 23 22 21 21 20 20 20 21
19 18 18 17 16 16 16 16 15 14 14 13 12 10 8 6 3 1 2 5 6 7 9 10 11 12 13 13 14 14 14 13 14 14 14 14 14 15 16 18 20 22 24 25 24 24 24 24 26 28 29 30 29 29 29 29 30 31 32 33 34 36 38 38 38 38 38 38 37 36 34 34 33 31 29 29 27 26 24 23 22 21 21 21 22
26 26 25 25 24 24 23 22 21 20 19 17 16 15 13 11 8 6 5 2 1 2 4 5 7 8 9 11 13 14 16 17 18 19 19 19 19 19 18 17 17 18 20 22 23 24 24 25 26 27 28 30 30 29 30 30 30 30 31 32 32 32 34 37 39 40 40 39 39 38 37 36 35 34 33 32 30 28 26 25 24 23 23 22 22
32 32 31 31 30 30 28 27 26 25 24 22 20 18 15 13 12 10 9 7 6 4 2 2 2 2 3 4 5 7 10 12 16 18 20 22 23 23 23 21 19 17 17 19 21 22 23 24 25 26 28 30 30 30 30 30 31 30 30 30 28 27 29 34 38 38 39 40 40 40 39 38 37 36 36 35 33 31 29 27 27 25 24 24 23
34 34 33 32 32 31 30 29 29 28 27 26 24 21 18 17 15 13 11 10 9 8 8 7 6 5 4 3 2 1 2 4 7 10 14 17 20 22 24 24 24 22 20 19 19 19 21 22 23 25 27 28 29 30 30 30 31 32 32 30 26 24 25 29 32 32 33 36 38 39 39 39 39 38 38 37 35 33 32 31 29 27 26 25 25
32 31 30 29 28 28 27 26 26 26 26 26 24 22 21 20 18 16 15 13 13 14 14 13 12 11 10 8 6 4 2 1 2 4 6 9 12 16 19 21 23 23 23 22 21 20 20 20 21 22 24 25 27 29 30 30 31 32 34 35 33 30 26 24 25 26 28 30 31 33 36 38 39 40 39 38 37 36 35 33 31 29 28 27 26
28 27 25 25 24 24 23 23 23 23 23 23 21 20 20 19 18 17 17 16 16 16 16 14 14 14 13 12 11 9 7 5 3 2 2 4 6 9 11 14 17 20 22 23 23 23 23 22 21 21 21 22 23 27 29 29 31 33 34 36 38 39 37 33 29 27 26 27 28 28 30 33 36 39 39 38 37 37 36 35 33 31 30 29 27
24 23 23 22 22 22 21 21 21 22 21 20 19 19 19 18 18 17 16 17 16 16 14 13 13 13 13 13 13 12 11 10 9 8 6 4 4 5 7 9 11 14 17 19 21 22 24 24 23 22 22 22 22 25 27 27 30 33 33 35 37 39 41 42 40 36 31 31 33 32 31 31 33 36 35 35 35 35 35 35 34 33 31 30 29
22 21 21 21 20 20 19 19 19 20 19 18 18 18 17 17 16 16 15 16 16 15 13 12 12 12 12 13 13 13 12 12 12 12 11 9 7 6 6 7 8 10 12 15 17 19 21 23 24 24 23 23 23 23 25 26 29 31 32 35 36 37 39 41 43 44 42 38 38 37 35 33 34 35 34 33 33 33 33 34 34 33 32 31 30
20 19 19 18 18 17 16 16 17 17 17 16 16 16 16 15 14 14 14 14 14 12 11 11 12 12 12 12 13 12 12 12 12 12 12 11 10 9 8 8 9 10 11 13 15 17 19 21 23 24 25 26 25 25 25 26 27 29 31 33 36 37 39 40 41 43 44 44 42 42 41 38 39 40 38 36 36 34 34 34 34 33 32 31 31
18 16 16 15 14 14 12 13 14 14 13 13 13 13 13 12 13 12 12 12 11 9 9 10 11 11 11 12 13 12 12 11 11 10 10 11 11 11 10 10 10 11 12 13 14 16 17 19 21 23 24 26 27 27 27 27 27 28 30 31 34 36 38 40 40 39 41 43 44 45 44 42 43 43 42 41 40 38 36 36 35 34 32 32 32
Wind_Direction
182 167 171 175 184 191 195 201 205 203 201 198 196 195 194 198 200 203 203 197 190 186 184 178 174 165 157 152 151 148 145 143 140 145 147 147 137 123 110 103 91 80 70 68 72 76 77 80 92 103 118 128 132 131 127 124 119 113 108 107 109 112 117 126 134 134 133 132 131 127 123 120 118 115 109 111 116 119 119 124 131 131 129 132 122
182 177 173 175 183 189 197 201 206 208 206 207 204 202 200 201 202 203 201 194 192 188 183 177 173 167 160 160 160 157 154 151 148 154 156 161 161 153 141 103 77 71 72 81 95 114 107 99 110 100 103 127 135 136 133 129 124 118 112 108 109 111 116 124 132 133 133 133 135 133 129 124 121 118 110 108 109 111 114 117 118 117 118 121 113
175 182 177 176 182 186 196 199 205 209 209 213 212 212 211 208 206 206 202 189 187 187 184 177 173 170 167 167 168 167 164 160 159 163 168 178 184 197 208 209 127 99 99 113 136 140 135 138 139 103 94 130 138 143 140 135 130 124 118 116 115 117 123 130 137 139 140 141 141 140 135 131 128 128 122 118 115 114 110 108 108 102 105 106 101
180 182 184 180 183 186 193 197 203 209 211 214 216 219 219 217 215 215 208 191 186 186 183 179 178 175 174 174 175 175 173 173 172 176 181 186 194 205 213 211 171 141 134 138 149 156 160 156 159 116 101 134 151 157 150 141 135 126 122 120 124 132 140 148 154 153 152 152 151 148 142 134 132 133 137 139 130 127 120 107 97 88 86 91 95
215 184 188 186 186 188 192 197 199 206 211 213 216 220 221 222 221 219 210 196 192 189 185 183 183 181 181 182 182 184 186 188 185 187 188 189 199 207 211 209 178 154 147 151 159 173 179 168 195 198 130 141 163 180 177 164 149 137 130 126 138 153 159 168 176 176 171 168 169 168 161 149 141 140 152 182 182 165 153 138 125 101 89 89 95
226 196 190 191 192 192 193 197 200 203 208 210 215 219 221 223 221 216 208 202 199 194 190 188 188 187 188 189 192 197 205 215 218 216 209 202 202 205 207 201 181 162 157 167 173 187 196 186 210 210 180 169 178 206 205 198 186 173 175 176 182 191 196 199 201 203 195 185 188 188 181 169 150 137 133 166 202 212 200 179 171 171 159 148 129
216 216 196 197 199 199 197 198 202 204 207 210 213 217 221 225 223 216 210 207 204 200 197 197 198 198 199 200 202 206 216 232 247 254 245 221 204 201 199 194 183 169 169 181 187 198 203 196 206 223 238 237 232 230 224 224 221 224 237 239 228 218 218 221 221 222 216 199 197 197 190 183 161 139 136 154 167 204 207 197 193 207 210 209 205
209 223 215 202 203 205 203 202 204 205 209 212 213 217 220 224 224 219 216 214 212 208 206 206 208 211 212 213 213 216 226 238 249 262 258 223 202 200 193 187 180 175 179 186 195 204 199 200 216 233 257 268 258 242 238 237 237 241 242 241 237 225 218 223 226 228 229 218 207 205 201 192 176 155 157 190 200 213 202 197 202 222 234 227 220
214 221 226 215 206 207 208 206 208 207 209 213 215 218 221 223 224 223 221 221 221 217 216 215 216 220 222 224 225 228 240 254 256 256 248 216 201 195 188 183 178 182 191 193 203 212 209 222 234 238 250 264 262 251 247 246 247 246 241 235 230 225 219 221 225 227 232 232 222 215 214 203 188 171 171 199 207 216 205 203 221 234 233 223 217
227 217 221 229 217 209 210 210 212 212 212 214 215 218 221 222 224 225 225 227 228 224 223 222 222 225 227 228 228 234 248 259 260 254 232 210 198 189 184 184 185 191 201 208 221 235 242 250 250 252 256 254 255 253 251 250 251 247 236 223 215 215 215 218 223 224 227 235 235 228 227 219 195 184 187 197 204 221 222 227 240 239 229 228 229
231 222 219 224 232 221 211 212 214 216 217 218 219 220 222 224 224 227 229 229 230 229 227 225 225 229 230 228 226 228 237 243 251 253 221 196 193 187 183 186 197 208 215 226 240 253 261 263 261 271 273 261 256 253 252 249 244 233 213 197 191 193 203 213 217 221 224 231 237 237 238 232 206 196 199 201 212 227 230 236 242 247 252 252 248
229 228 225 221 230 233 220 216 217 219 220 222 223 224 226 228 227 229 232 233 233 232 229 227 228 231 230 227 225 221 224 232 240 242 217 193 194 192 190 195 208 220 228 238 252 264 271 270 269 278 280 276 269 259 255 246 228 210 186 172 169 173 186 199 206 215 222 229 235 239 243 239 226 214 211 209 217 228 234 244 241 247 280 278 262
241 231 231 227 226 233 233 223 220 223 223 224 226 227 229 231 231 232 235 237 238 235 232 228 229 231 230 226 225 222 220 225 232 236 224 205 208 212 210 216 226 234 243 254 265 275 278 279 279 271 274 276 269 260 245 227 209 194 180 169 168 177 185 189 191 202 216 227 234 239 243 243 240 234 229 225 229 240 249 258 234 207 226 279 260
276 243 234 233 230 231 234 234 229 227 228 228 229 230 231 233 234 234 235 239 240 239 236 231 230 230 228 226 225 226 223 222 227 233 231 222 223 232 236 247 255 263 269 273 276 278 280 285 285 271 265 267 259 248 229 213 207 200 196 188 190 204 205 203 194 198 215 226 233 239 243 244 244 242 242 240 243 251 257 263 243 192 176 203 233
289 263 239 234 233 232 233 237 238 235 233 232 233 234 235 236 237 237 237 239 242 241 238 235 233 230 228 228 230 232 228 222 224 231 233 231 233 242 253 265 276 282 280 278 277 276 277 281 283 269 250 251 241 226 218 209 214 217 216 207 218 228 227 232 224 224 229 233 238 241 244 244 243 242 244 249 253 258 262 266 254 215 194 200 214
289 271 251 240 234 234 234 236 239 241 241 238 237 238 239 240 240 240 239 240 242 242 241 238 235 232 231 230 232 234 229 223 226 231 231 235 246 254 262 275 289 288 281 279 274 271 272 271 270 254 234 230 220 212 210 210 217 219 220 221 235 246 254 262 257 252 249 246 246 247 248 248 246 243 244 256 265 273 278 275 261 236 218 217 223
288 279 266 254 241 237 236 237 239 241 243 243 241 240 241 243 243 243 243 242 241 241 240 240 239 237 235 230 230 230 227 222 224 231 232 237 249 256 264 277 290 290 286 284 271 259 263 260 241 231 223 216 209 207 209 211 214 217 222 230 244 259 272 281 281 275 264 253 249 249 253 253 251 249 251 261 274 285 287 280 271 255 239 235 238
295 289 277 264 253 245 238 237 239 240 242 243 243 243 242 244 245 245 245 245 242 241 238 239 240 240 239 233 230 227 224 222 222 228 233 237 243 251 262 273 284 287 287 283 271 257 258 243 220 219 216 209 207 207 211 212 214 220 229 241 252 265 274 280 281 277 271 264 259 256 256 257 257 257 260 266 277 286 287 280 274 266 256 252 253
302 297 289 275 262 252 244 239 238 239 241 243 244 245 245 245 246 246 246 246 245 242 238 236 237 240 241 237 233 229 224 225 225 228 234 238 240 246 256 267 278 283 281 278 271 261 255 232 218 218 212 208 208 211 213 214 217 225 235 248 257 265 271 275 273 269 268 268 267 263 260 260 261 263 266 271 278 283 283 279 276 272 266 263 263
306 303 298 284 269 257 249 243 240 239 241 243 245 247 248 249 248 248 247 246 245 244 240 236 236 237 239 238 237 232 228 228 227 229 236 240 241 243 249 259 269 275 273 269 263 255 248 229 223 220 212 209 212 215 216 216 221 232 244 255 264 269 272 273 269 268 268 269 269 267 266 265 266 267 271 274 277 280 281 280 278 275 272 268 266
303 306 306 294 277 265 257 250 246 244 243 243 244 246 247 249 250 250 249 248 245 244 242 238 237 237 236 238 237 234 231 229 228 230 236 241 245 246 248 253 260 266 266 262 254 250 246 229 226 222 213 213 216 219 219 219 225 237 251 263 271 274 275 274 273 273 273 272 271 271 270 269 270 272 274 276 277 279 281 282 280 278 276 273 271
299 306 311 303 287 275 266 258 253 249 247 246 244 245 246 248 249 251 251 250 247 244 242 240 239 238 237 237 237 236 232 230 230 232 237 241 246 250 251 252 254 260 262 258 248 246 244 232 233 226 216 219 220 223 224 223 232 244 258 268 272 274 275 276 278 278 278 278 277 277 276 275 275 275 276 277 279 279 282 283 283 283 281 278 276
301 309 314 308 296 283 273 263 258 254 251 249 247 245 245 247 248 250 252 252 249 244 242 241 240 240 239 238 238 238 235 231 231 234 238 242 247 252 254 252 253 259 261 257 247 242 239 233 238 231 222 224 224 227 228 228 236 247 259 265 267 270 272 276 278 279 281 282 283 283 283 284 283 283 284 284 284 285 286 286 286 286 283 281 278
307 307 309 309 305 298 287 277 266 259 255 252 251 248 245 246 247 249 251 252 251 246 244 244 243 243 242 241 240 239 237 233 232 234 236 241 247 252 256 255 256 261 260 256 249 242 237 233 236 231 226 227 226 230 232 231 237 246 254 257 260 264 268 272 275 278 281 282 284 286 287 288 289 289 290 290 290 290 290 289 288 287 285 282 279
303 303 308 312 313 310 301 292 283 273 266 261 257 254 251 248 248 249 250 251 251 249 248 248 247 246 245 244 243 241 240 236 233 233 234 240 246 252 257 260 260 261 258 256 251 245 239 236 234 231 230 229 228 231 233 232 234 241 246 249 253 257 262 266 269 273 277 281 284 286 288 288 290 291 291 292 292 291 291 290 289 287 284 281 278
281 289 300 305 307 312 308 299 292 289 288 283 273 265 260 255 252 251 251 250 249 248 249 250 251 250 249 247 246 244 242 240 235 233 236 242 248 254 260 263 264 263 258 254 251 247 242 240 235 232 235 233 232 234 234 233 233 237 241 243 247 250 255 258 262 267 270 274 278 282 285 287 289 290 291 291 290 290 291 290 290 287 284 282 279
270 272 278 280 287 300 305 300 296 295 296 298 292 282 272 263 259 255 253 251 249 248 249 251 253 254 253 250 248 246 245 243 239 237 241 246 251 256 261 264 265 265 262 254 251 249 245 241 233 232 238 237 236 238 238 237 235 237 240 240 243 245 248 252 255 261 264 267 271 275 278 281 285 287 289 290 290 291 291 291 290 288 287 290 286
272 269 271 275 276 282 289 293 295 296 298 298 296 295 287 275 266 259 256 253 250 249 249 252 255 256 256 254 251 248 247 245 242 242 244 248 253 257 261 264 267 268 267 258 252 251 247 242 233 230 237 238 238 240 240 239 237 237 240 240 241 243 244 246 249 254 259 262 265 270 272 275 279 282 285 287 289 292 292 293 291 289 290 294 290
271 266 268 272 275 276 278 287 294 296 296 295 295 296 290 281 271 264 260 257 255 253 252 252 254 255 257 258 255 251 250 247 244 244 246 249 254 259 262 265 268 269 270 264 255 254 251 245 237 231 236 240 239 240 241 240 239 240 240 241 242 243 243 244 244 248 254 257 261 264 268 271 274 276 279 282 286 289 291 292 290 288 287 287 280
265 264 263 264 265 267 269 275 292 298 294 290 293 296 292 286 280 273 268 263 261 259 256 254 254 254 256 259 260 257 255 251 248 247 248 252 256 260 263 266 268 270 272 269 260 255 253 249 242 235 238 243 242 241 242 242 242 243 243 243 243 243 244 244 244 247 252 257 260 262 266 269 271 274 276 278 282 284 286 286 286 286 281 278 271
262 263 264 264 261 260 263 265 270 287 292 291 293 295 296 293 289 283 276 271 267 264 261 260 260 259 258 258 260 263 261 256 251 250 252 255 258 261 265 268 270 272 273 273 266 258 253 249 246 239 240 246 247 244 242 242 243 245 246 245 245 246 246 246 246 247 251 256 261 264 267 270 273 275 276 278 279 280 281 281 280 276 269 265 261
263 263 264 264 262 258 259 263 263 268 286 295 295 297 300 298 294 287 282 279 274 269 267 265 265 265 265 262 262 265 266 262 256 254 256 258 261 263 267 270 273 275 276 275 272 265 257 249 245 240 238 242 246 246 243 243 244 245 246 247 247 249 249 249 249 250 251 255 259 263 266 270 272 275 276 278 278 278 278 275 272 271 269 261 256
259 262 262 260 260 260 258 261 263 262 266 277 289 297 299 297 294 289 285 281 276 273 271 270 269 268 268 267 268 268 268 267 264 261 261 262 265 267 271 275 276 277 277 277 276 273 266 254 246 241 237 239 243 246 244 244 245 245 246 247 248 250 251 252 252 253 253 255 259 261 263 266 269 271 274 275 275 277 276 273 274 276 273 263 257
263 263 262 262 262 263 261 261 262 261 253 242 250 271 282 287 288 286 283 279 276 275 274 274 273 271 270 271 272 271 269 269 269 268 266 265 268 271 275 278 279 279 278 278 279 279 276 265 253 244 240 240 243 246 246 246 246 247 247 248 249 250 251 253 254 254 254 256 259 261 262 264 266 267 269 271 272 275 274 275 277 274 267 259 250
280 275 269 269 269 267 261 257 259 259 250 238 234 238 254 266 271 274 274 275 273 273 274 274 274 273 272 272 273 274 273 272 273 273 271 271 272 274 276 278 280 279 279 281 282 283 284 276 262 251 247 244 244 245 247 247 247 248 250 250 250 250 251 253 254 255 255 256 258 260 261 262 264 265 266 269 270 273 274 275 274 268 263 255 244
288 283 274 268 265 260 252 249 253 257 253 245 240 236 242 252 259 263 262 263 264 265 268 269 271 273 274 275 276 276 275 275 276 276 276 276 276 277 278 278 278 279 279 281 282 285 288 283 270 261 257 253 249 247 247 248 248 249 250 250 250 250 251 252 253 254 255 256 258 258 260 261 262 263 264 267 269 270 271 272 271 266 263 254 246
304 286 259 248 242 237 233 238 243 248 252 246 241 237 238 247 252 256 255 254 255 255 257 259 262 265 267 270 272 274 275 275 276 277 278 277 278 279 279 278 278 278 279 279 281 284 288 284 276 272 269 265 259 254 250 249 249 249 249 250 250 249 250 250 251 253 254 255 256 257 258 260 260 261 263 266 267 268 269 270 269 266 263 257 252
59 78 200 218 221 229 229 237 242 246 253 250 245 238 234 238 240 245 247 247 247 247 248 250 253 256 258 261 263 267 269 271 274 277 279 279 278 278 278 278 278 279 279 279 280 282 284 284 281 280 279 275 270 265 260 255 252 249 249 250 250 249 249 249 250 251 252 254 255 257 257 257 257 259 262 264 265 266 268 269 268 266 263 259 255
97 100 95 90 106 173 235 252 253 252 260 257 248 238 234 236 234 235 237 236 236 236 238 241 245 250 252 256 259 261 262 265 268 270 272 275 276 276 277 277 277 277 276 276 278 280 283 284 285 285 284 281 277 273 269 264 258 252 250 249 250 250 249 249 249 249 251 253 255 255 255 256 257 258 260 261 263 265 267 268 268 266 264 260 257
102 102 102 93 87 79 67 62 63 44 355 277 250 239 234 233 234 234 234 234 230 228 228 229 234 239 243 247 250 253 253 255 258 261 264 266 269 270 270 270 273 275 275 275 278 281 283 285 286 286 284 282 279 277 273 269 264 257 253 251 250 250 250 249 249 249 251 252 253 253 254 256 256 256 258 260 261 263 265 266 266 265 263 262 258
99 99 97 89 82 79 77 75 70 63 63 65 60 59 187 210 223 227 229 232 232 232 230 228 229 232 235 236 237 239 240 242 245 250 256 261 265 267 267 267 270 273 276 278 279 280 281 282 283 282 280 278 278 278 276 272 265 259 256 255 253 251 250 249 249 250 251 250 251 252 254 255 255 256 257 258 260 261 263 264 264 265 264 262 260
92 90 87 84 83 84 83 79 75 74 72 69 64 63 66 68 67 170 214 228 232 234 236 236 237 239 241 242 242 242 243 244 244 244 248 251 255 261 265 269 271 273 274 275 277 277 278 279 278 277 277 276 276 276 274 270 265 262 261 259 257 255 252 251 252 252 251 250 251 252 253 254 255 256 257 258 258 259 260 262 263 264 263 261 259
87 87 86 86 85 84 83 82 81 80 78 75 72 69 65 60 54 51 50 52 164 196 217 223 231 237 243 249 251 252 252 251 251 250 251 251 252 252 255 259 265 270 272 272 272 273 274 275 275 276 276 275 273 272 271 270 267 264 261 257 257 259 258 256 255 254 252 252 253 253 253 254 255 256 256 258 258 258 258 260 261 261 261 260 258
88 87 85 84 82 81 80 80 79 78 77 76 74 71 69 66 62 58 54 55 62 66 90 140 167 189 209 234 250 256 258 257 257 256 256 255 255 254 253 253 255 260 266 270 271 270 270 270 272 273 273 272 271 271 271 271 268 263 257 253 253 257 259 259 260 259 257 255 255 254 254 254 254 255 256 257 258 258 258 258 258 258 259 258 258
85 83 82 81 80 79 78 77 76 76 75 74 72 72 72 70 69 68 66 67 73 76 77 78 80 80 82 88 104 195 240 251 257 259 259 259 259 257 256 254 253 252 255 261 266 269 269 269 270 271 271 272 274 274 273 271 269 267 260 253 250 252 257 263 267 267 263 260 259 257 256 255 255 254 255 257 258 258 257 256 256 255 257 257 256
81 80 80 79 78 78 77 76 75 75 74 74 74 74 73 74 74 75 74 72 72 70 65 61 59 62 65 66 65 66 77 152 226 244 252 255 257 259 260 258 255 253 252 253 257 261 265 268 271 272 272 274 276 276 274 272 272 270 265 259 255 254 259 267 273 276 274 270 266 262 260 257 256 255 255 256 256 256 256 255 255 255 255 255 254
80 80 79 78 77 77 76 75 74 73 74 74 75 74 74 74 73 72 70 67 64 60 56 51 49 51 55 59 58 51 47 43 31 350 281 260 254 255 257 260 260 257 255 253 253 255 258 262 265 269 272 273 275 275 275 275 273 270 268 266 262 259 258 261 267 275 281 278 273 270 267 261 257 255 255 255 255 255 255 255 255 254 253 253 252
81 78 75 73 73 73 72 73 72 72 72 71 71 69 68 69 68 67 65 64 63 61 58 53 49 47 46 52 54 50 44 37 29 22 11 346 307 282 267 261 260 261 261 258 255 254 254 254 256 260 265 267 270 272 274 274 271 270 270 270 268 264 261 259 260 265 271 276 274 272 270 268 263 259 258 258 257 256 257 256 256 254 253 252 251
80 74 71 69 67 67 68 69 69 71 71 68 65 64 62 63 64 62 62 62 62 62 60 57 55 50 45 47 50 50 48 41 33 28 24 17 0 337 313 291 274 268 266 265 262 259 255 253 252 253 256 258 261 265 269 269 269 270 271 271 270 269 266 263 260 260 262 268 272 271 270 270 268 265 263 262 261 260 259 257 255 253 252 250 250
76 72 70 67 64 62 60 60 63 67 68 67 61 60 59 56 56 58 60 62 64 64 62 60 58 52 47 46 45 47 48 44 38 32 26 22 16 7 350 329 311 296 285 278 273 269 264 259 256 253 253 254 255 258 262 264 265 267 268 269 270 269 269 266 263 261 262 264 267 269 270 270 270 269 269 268 267 265 261 258 256 254 252 250 248
75 72 69 66 62 61 55 52 57 60 61 60 55 55 55 49 50 54 55 60 63 59 54 53 52 46 42 41 38 38 41 42 40 34 27 22 16 12 7 357 344 330 317 304 292 283 277 271 266 261 257 255 254 255 257 259 261 262 263 265 267 268 269 269 268 267 266 266 267 269 270 271 272 273 273 272 270 267 263 260 258 257 256 253 249